Oxnard, CA

7:44 AM PST on February 23, 2017 (GMT -0800)
Oxnard

Weather History for KOXR - November, 2012

Change the Weather History Date:

Friday, November 30, 2012

  Actual Average Record
Temperature  
Mean Temperature 60 °F -  
Max Temperature 64 °F 69 °F 86 °F (1977)
Min Temperature 57 °F 47 °F 36 °F (1975)
Degree Days  
Heating Degree Days 4    
Growing Degree Days 10 (Base 50)    
Moisture  
Dew Point 60 °F    
Average Humidity 97    
Maximum Humidity 100    
Minimum Humidity 84    
Precipitation  
Precipitation 0.31 in - - ()
Sea Level Pressure  
Sea Level Pressure 30.11 in    
Wind  
Wind Speed 3 mph (East)    
Max Wind Speed 6 mph    
Max Gust Speed -    
Visibility 4 miles    
Events Rain    
Averages and records for this station are not official NWS values.
T = Trace of Precipitation, MM = Missing Value Source: NWS Daily Summary

Daily Weather History Graph

Daily Weather History Graph

Search for Another Location

Airport or City:

Trip Planner

Search our weather history database for the weather conditions in past years. The results will help you decide how hot, cold, wet, or windy it might be!

Date:

Astronomy

Nov. 30, 2012 Rise Set
Actual Time 6:44 AM PST 4:47 PM PST
Civil Twilight 6:16 AM PST 5:14 PM PST
Nautical Twilight 5:45 AM PST 5:45 PM PST
Astronomical Twilight 5:15 AM PST 6:15 PM PST
Moon 6:45 PM PST (11/30) 8:19 AM PST (11/30)
Length of Visible Light 10h 57m
Length of Day
10h 02m
Waning Gibbous, 96% of the Moon is Illuminated
Nov 30
Waning Gibbous
Dec 6
Last Quarter
Dec 13
New
Dec 19
First Quarter
Dec 28
Full

Hourly Weather History & Observations

Time (PST) Temp. Dew Point Humidity Pressure Visibility Wind Dir Wind Speed Gust Speed Precip Events Conditions
12:02 AM 60.8 °F 60.8 °F 100% 30.13 in 6.0 mi East 4.6 mph - N/A   Overcast
12:29 AM 60.8 °F 60.8 °F 100% 30.13 in 4.0 mi East 3.5 mph - 0.00 in Rain Light Rain
12:51 AM 61.0 °F 61.0 °F 100% 30.12 in 2.0 mi East 3.5 mph - 0.02 in Rain Light Rain
1:12 AM 60.8 °F 60.8 °F 100% 30.12 in 2.0 mi East 4.6 mph - 0.02 in Rain Light Rain
1:25 AM 60.8 °F 60.8 °F 100% 30.12 in 4.0 mi ENE 4.6 mph - 0.03 in   Overcast
1:39 AM 60.8 °F 60.8 °F 100% 30.11 in 5.0 mi ENE 4.6 mph - 0.03 in   Overcast
1:51 AM 61.0 °F 60.1 °F 97% 30.11 in 6.0 mi East 4.6 mph - 0.03 in   Overcast
2:51 AM 61.0 °F 61.0 °F 100% 30.11 in 2.5 mi Calm Calm - 0.02 in Rain Light Rain
3:12 AM 60.8 °F 60.8 °F 100% 30.10 in 3.0 mi Calm Calm - 0.03 in Rain Light Rain
3:35 AM 60.8 °F 60.8 °F 100% 30.10 in 4.0 mi Calm Calm - 0.04 in Rain Light Rain
3:51 AM 61.0 °F 60.1 °F 97% 30.09 in 5.0 mi East 4.6 mph - 0.04 in Rain Light Rain
3:58 AM 60.8 °F 60.8 °F 100% 30.09 in 6.0 mi ENE 3.5 mph - 0.00 in   Overcast
4:24 AM 60.8 °F 60.8 °F 100% 30.08 in 9.0 mi ENE 3.5 mph - 0.00 in   Overcast
4:51 AM 61.0 °F 60.1 °F 97% 30.07 in 7.0 mi ENE 4.6 mph - 0.01 in   Overcast
5:23 AM 60.8 °F 60.8 °F 100% 30.08 in 1.8 mi ENE 3.5 mph - 0.05 in Rain Rain
5:39 AM 60.8 °F 60.8 °F 100% 30.08 in 2.0 mi East 3.5 mph - 0.10 in Rain Light Rain
5:51 AM 61.0 °F 61.0 °F 100% 30.09 in 2.0 mi Calm Calm - 0.13 in Rain Light Rain
5:59 AM 60.8 °F 60.8 °F 100% 30.09 in 1.8 mi Calm Calm - 0.02 in Rain Light Rain
6:02 AM 60.8 °F 60.8 °F 100% 30.09 in 2.0 mi Calm Calm - 0.02 in Rain Light Rain
6:11 AM 60.8 °F 60.8 °F 100% 30.09 in 2.0 mi Calm Calm - 0.03 in Rain Light Rain
6:44 AM 60.8 °F 60.8 °F 100% 30.10 in 4.0 mi Calm Calm - 0.05 in   Overcast
6:51 AM 61.0 °F 61.0 °F 100% 30.10 in 3.0 mi Calm Calm - 0.05 in   Overcast
7:05 AM 60.8 °F 60.8 °F 100% 30.11 in 2.5 mi Calm Calm - N/A   Overcast
7:51 AM 62.1 °F 61.0 °F 96% 30.11 in 2.5 mi ENE 3.5 mph - 0.01 in Rain Light Rain
8:02 AM 62.6 °F 60.8 °F 94% 30.11 in 1.8 mi ENE 5.8 mph - 0.00 in Rain Light Rain
8:51 AM 62.1 °F 62.1 °F 100% 30.12 in 3.0 mi ENE 4.6 mph - 0.00 in   Overcast
9:51 AM 63.0 °F 62.1 °F 97% 30.12 in 4.0 mi East 3.5 mph - N/A   Overcast
10:27 AM 64.4 °F 62.6 °F 94% 30.13 in 10.0 mi SSW 3.5 mph - N/A   Overcast
10:51 AM 64.0 °F 62.1 °F 93% 30.13 in 7.0 mi South 3.5 mph - N/A   Overcast
11:51 AM 64.0 °F 61.0 °F 90% 30.12 in 7.0 mi Calm Calm - N/A   Overcast
12:51 PM 64.9 °F 62.1 °F 90% 30.11 in 10.0 mi SW 5.8 mph - 0.00 in   Overcast
1:51 PM 64.0 °F 62.1 °F 93% 30.10 in 8.0 mi WSW 5.8 mph - N/A   Overcast
2:51 PM 64.0 °F 61.0 °F 90% 30.10 in 8.0 mi NW 3.5 mph - N/A   Overcast
3:20 PM 64.4 °F 60.8 °F 88% 30.12 in 8.0 mi WNW 5.8 mph - N/A   Mostly Cloudy
3:51 PM 64.0 °F 61.0 °F 90% 30.09 in 10.0 mi Calm Calm - N/A   Mostly Cloudy
4:51 PM 64.0 °F 59.0 °F 84% 30.06 in 10.0 mi SW 3.5 mph - N/A   Clear
5:51 PM 62.1 °F 59.0 °F 90% 30.09 in 6.0 mi Calm Calm - N/A   Clear
6:51 PM 60.1 °F 59.0 °F 96% 30.10 in 4.0 mi Calm Calm - N/A   Partly Cloudy
7:51 PM 60.1 °F 57.9 °F 93% 30.12 in 3.0 mi Calm Calm - N/A   Mostly Cloudy
8:51 PM 59.0 °F 57.9 °F 96% 30.12 in 0.8 mi Calm Calm - N/A   Mist
9:24 PM 57.2 °F 57.2 °F 100% 30.12 in 1.5 mi Calm Calm - N/A   Overcast
9:33 PM 57.2 °F 57.2 °F 100% 30.12 in 2.0 mi ENE 4.6 mph - N/A   Overcast
9:48 PM 57.2 °F 57.2 °F 100% 30.13 in 4.0 mi ENE 3.5 mph - N/A   Overcast
9:51 PM 59.0 °F 57.9 °F 96% 30.13 in 4.0 mi East 3.5 mph - N/A   Overcast
9:59 PM 59.0 °F 57.2 °F 94% 30.14 in 1.8 mi ENE 3.5 mph - N/A   Overcast
10:09 PM 59.0 °F 57.2 °F 94% 30.14 in 0.8 mi Calm Calm - N/A   Overcast
10:17 PM 59.0 °F 57.2 °F 94% 30.14 in 2.0 mi Calm Calm - N/A   Overcast
10:25 PM 59.0 °F 59.0 °F 100% 30.14 in 5.0 mi Calm Calm - N/A   Overcast
10:49 PM 59.0 °F 59.0 °F 100% 30.14 in 6.0 mi Calm Calm - N/A   Overcast
10:51 PM 59.0 °F 59.0 °F 100% 30.14 in 6.0 mi Calm Calm - N/A   Overcast
11:51 PM 60.1 °F 59.0 °F 96% 30.14 in 8.0 mi ESE 3.5 mph - N/A   Overcast